Location: Lugrin
(46.4033°N, 6.6674°E)
Time: 11:37:08
(UTC+00:00)

ATLAS 2AS CENTAUR R/B - Pass Details

Date: 18 September 2020
Orbit: 939 x 1273 km, 63.7° (Epoch: 19 October)

Event Time Altitude Azimuth Distance (km) Brightness Sun altitude
Rises 19:12:21 0° 171° (S) 4,174 5.5 -16.7°
Reaches altitude 10° 19:15:41 10° 158° (SSE) 3,237 4.8 -17.2°
Enters shadow 19:16:57 14° 152° (SSE) 2,935 4.5 -17.4°
Exits shadow 19:24:45 20° 78° (ENE) 2,606 4.3 -18.7°
Drops below altitude 10° 19:27:46 10° 58° (ENE) 3,258 4.9 -19.1°
Sets 19:31:06 0° 46° (NE) 4,208 5.6 -19.7°
